Change the Weather History Date:

Sunday, August 25, 2013

  Actual Average Record
Temperature  
Mean Temperature 83 °F -  
Max Temperature 95 °F 78 °F 105 °F (1948)
Min Temperature 73 °F 54 °F 35 °F (1958)
Cooling Degree Days 18    
Growing Degree Days 33 (Base 50)    
Moisture  
Dew Point 68 °F    
Average Humidity 62    
Maximum Humidity 79    
Minimum Humidity 43    
Precipitation  
Precipitation 0.00 in - - ()
Sea Level Pressure  
Sea Level Pressure 30.08 in    
Wind  
Wind Speed 11 mph (SSW)    
Max Wind Speed 20 mph    
Max Gust Speed 26 mph    
Visibility 10 miles    
Events      
Averages and records for this station are not official NWS values.
T = Trace of Precipitation, MM = Missing Value Source: NWS Daily Summary

Daily Weather History Graph

Daily Weather History Graph

Search for Another Location

Airport or City:

Trip Planner

Search our weather history database for the weather conditions in past years. The results will help you decide how hot, cold, wet, or windy it might be!

Date:

Astronomy

Aug. 25, 2013 Rise Set
Actual Time 6:14 AM CDT 7:47 PM CDT
Civil Twilight 5:43 AM CDT 8:17 PM CDT
Nautical Twilight 5:06 AM CDT 8:54 PM CDT
Astronomical Twilight 4:27 AM CDT 9:34 PM CDT
Moon 10:04 PM CDT (8/25) 11:30 AM CDT (8/25)
Length of Visible Light 14h 34m
Length of Day
13h 33m
Waning Gibbous, 75% of the Moon is Illuminated
Aug 25
Waning Gibbous
Aug 28
Last Quarter
Sep 5
New
Sep 12
First Quarter
Sep 19
Full

Hourly Weather History & Observations

Time (CDT) Temp. Heat Index Dew Point Humidity Pressure Visibility Wind Dir Wind Speed Gust Speed Precip Events Conditions
12:54 AM 75.0 °F - 64.9 °F 71% 30.11 in 10.0 mi SSW 10.4 mph - N/A   Partly Cloudy
1:54 AM 75.0 °F - 66.0 °F 73% 30.11 in 10.0 mi South 10.4 mph - N/A   Clear
2:54 AM 73.9 °F - 66.0 °F 76% 30.12 in 10.0 mi South 11.5 mph - N/A   Clear
3:54 AM 73.9 °F - 66.0 °F 76% 30.11 in 10.0 mi South 9.2 mph - N/A   Clear
4:54 AM 73.9 °F - 66.9 °F 79% 30.12 in 10.0 mi SSW 10.4 mph - N/A   Clear
5:54 AM 73.9 °F - 66.9 °F 79% 30.12 in 10.0 mi SSW 10.4 mph - N/A   Clear
6:54 AM 75.0 °F - 66.9 °F 76% 30.14 in 10.0 mi SSW 8.1 mph - N/A   Clear
7:54 AM 75.0 °F - 68.0 °F 79% 30.14 in 10.0 mi SSW 10.4 mph - N/A   Clear
8:54 AM 79.0 °F - 68.0 °F 69% 30.13 in 10.0 mi SW 12.7 mph 23.0 mph N/A   Clear
9:54 AM 82.9 °F 85.8 °F 68.0 °F 60% 30.12 in 10.0 mi SW 17.3 mph - N/A   Clear
10:54 AM 88.0 °F 91.4 °F 68.0 °F 51% 30.11 in 10.0 mi SW 13.8 mph 24.2 mph N/A   Clear
11:54 AM 90.0 °F 92.8 °F 66.9 °F 46% 30.08 in 10.0 mi SW 19.6 mph 26.5 mph N/A   Clear
12:54 PM 91.9 °F 95.9 °F 68.0 °F 45% 30.07 in 10.0 mi SW 13.8 mph 24.2 mph N/A   Clear
1:54 PM 93.0 °F 97.4 °F 68.0 °F 44% 30.05 in 10.0 mi SW 9.2 mph 23.0 mph N/A   Clear
2:54 PM 91.9 °F 95.9 °F 68.0 °F 45% 30.04 in 10.0 mi SW 10.4 mph 20.7 mph N/A   Clear
3:54 PM 93.9 °F 98.6 °F 68.0 °F 43% 30.03 in 10.0 mi SW 17.3 mph 26.5 mph N/A   Clear
4:54 PM 93.0 °F 97.9 °F 69.1 °F 45% 30.02 in 10.0 mi SW 13.8 mph 23.0 mph N/A   Clear
5:54 PM 91.0 °F 95.6 °F 69.1 °F 48% 30.03 in 10.0 mi SW 15.0 mph - N/A   Clear
6:54 PM 88.0 °F 92.9 °F 70.0 °F 55% 30.04 in 10.0 mi SW 11.5 mph - N/A   Clear
7:54 PM 84.9 °F 89.4 °F 70.0 °F 61% 30.05 in 10.0 mi SSW 10.4 mph 18.4 mph N/A   Clear
8:54 PM 82.0 °F 85.9 °F 70.0 °F 67% 30.06 in 10.0 mi SSW 8.1 mph - N/A   Clear
9:54 PM 81.0 °F 84.4 °F 70.0 °F 69% 30.06 in 10.0 mi SSW 9.2 mph - N/A   Clear
10:54 PM 80.1 °F 83.2 °F 70.0 °F 71% 30.06 in 10.0 mi SSW 10.4 mph - N/A   Clear
11:54 PM 79.0 °F - 66.9 °F 66% 30.03 in 10.0 mi SSW 11.5 mph - N/A   Clear